Location: Newark
(51.2000°N, 58.6167°E)
Time: 09:24:43
(UTC+00:00)

Envisat - Pass Details

Date: 04 October 2020
Orbit: 764 x 766 km, 98.1° (Epoch: 23 October)

Event Time Altitude Azimuth Distance (km) Brightness Sun altitude
Rises 01:11:53 0° 23° (NNE) 3,244 6.7 -10.1°
Reaches altitude 10° 01:14:37 10° 37° (NE) 2,313 6.1 -9.7°
Maximum altitude 01:18:45 24° 91° (E) 1,535 5.7 -9.0°
Drops below altitude 10° 01:22:51 10° 146° (SE) 2,298 5.9 -8.4°
Sets 01:25:33 0° 159° (SSE) 3,219 6.5 -8.0°
